Back to catalog

IRIDIUM 121

AliveCommunicationsPO
NORAD 42812·PAYLOAD·🇺🇸 United States

Launched Jun 25, 2017 from Vandenberg Space Force Base

Loading…

Next Passes (next 24 hours)

TLE

FreshSource: CelesTrak SupGP

Epoch: Sep 14, 2026, 10:03 UTC

1 42812C 17039K   26257.41909722 -.00001267  00000+0 -45319-3 0  2572
2 42812  86.3978 316.3947 0002215  96.0707 354.3221 14.34216065    15

Track IRIDIUM 121 in real time with AllMySat

Download on the App Store